Year,Month,Day,Hour,Minute,Value (Times are PST for barometer in hPa)
2019,10,04,00,00,965.83
2019,10,04,00,01,965.83
2019,10,04,00,02,965.83
2019,10,04,00,03,965.83
2019,10,04,00,04,965.83
2019,10,04,00,05,965.83
2019,10,04,00,06,965.83
2019,10,04,00,07,965.83
2019,10,04,00,08,965.83
2019,10,04,00,09,965.83
2019,10,04,00,10,965.83
2019,10,04,00,11,965.83
2019,10,04,00,12,965.83
2019,10,04,00,13,965.83
2019,10,04,00,14,965.83
2019,10,04,00,15,965.83
2019,10,04,00,16,965.83
2019,10,04,00,17,965.83
2019,10,04,00,18,965.83
2019,10,04,00,19,965.83
2019,10,04,00,20,965.83
2019,10,04,00,21,965.83
2019,10,04,00,22,965.83
2019,10,04,00,23,965.83
2019,10,04,00,24,965.83
2019,10,04,00,25,965.83
2019,10,04,00,26,965.83
2019,10,04,00,27,965.83
2019,10,04,00,28,965.83
2019,10,04,00,29,965.83
2019,10,04,00,30,965.83
2019,10,04,00,31,965.83
2019,10,04,00,32,965.83
2019,10,04,00,33,965.83
2019,10,04,00,34,965.83
2019,10,04,00,35,965.83
2019,10,04,00,36,965.83
2019,10,04,00,37,965.83
2019,10,04,00,38,965.83
2019,10,04,00,39,965.83
2019,10,04,00,40,965.83
2019,10,04,00,41,965.83
2019,10,04,00,42,965.83
2019,10,04,00,43,965.83
2019,10,04,00,44,965.83
2019,10,04,00,45,965.83
2019,10,04,00,46,965.83
2019,10,04,00,47,965.83
2019,10,04,00,48,965.83
2019,10,04,00,49,965.83
2019,10,04,00,50,965.83
2019,10,04,00,51,965.83
2019,10,04,00,52,965.83
2019,10,04,00,53,965.83
2019,10,04,00,54,965.83
2019,10,04,00,55,965.83
2019,10,04,00,56,965.83
2019,10,04,00,57,965.83
2019,10,04,00,58,965.83
2019,10,04,00,59,965.83
2019,10,04,01,00,965.83
2019,10,04,01,01,965.83
2019,10,04,01,02,965.83
2019,10,04,01,03,965.83
2019,10,04,01,04,965.83
2019,10,04,01,05,965.83
2019,10,04,01,06,965.83
2019,10,04,01,07,965.83
2019,10,04,01,08,965.83
2019,10,04,01,09,965.83
2019,10,04,01,10,965.83
2019,10,04,01,11,965.83
2019,10,04,01,12,965.83
2019,10,04,01,13,965.83
2019,10,04,01,14,965.83
2019,10,04,01,15,965.83
2019,10,04,01,16,965.83
2019,10,04,01,17,965.83
2019,10,04,01,18,965.83
2019,10,04,01,19,965.83
2019,10,04,01,20,965.83
2019,10,04,01,21,965.83
2019,10,04,01,22,965.83
2019,10,04,01,23,965.83
2019,10,04,01,24,965.83
2019,10,04,01,25,965.83
2019,10,04,01,26,965.83
2019,10,04,01,27,965.83
2019,10,04,01,28,965.83
2019,10,04,01,29,965.83
2019,10,04,01,30,965.83
2019,10,04,01,31,965.83
2019,10,04,01,32,965.83
2019,10,04,01,33,965.83
2019,10,04,01,34,965.83
2019,10,04,01,35,965.83
2019,10,04,01,36,965.83
2019,10,04,01,37,965.83
2019,10,04,01,38,965.83
2019,10,04,01,39,965.83
2019,10,04,01,40,965.83
2019,10,04,01,41,965.83
2019,10,04,01,42,965.83
2019,10,04,01,43,965.83
2019,10,04,01,44,965.83
2019,10,04,01,45,965.83
2019,10,04,01,46,965.83
2019,10,04,01,47,965.83
2019,10,04,01,48,965.83
2019,10,04,01,49,965.83
2019,10,04,01,50,965.83
2019,10,04,01,51,965.83
2019,10,04,01,52,965.83
2019,10,04,01,53,965.83
2019,10,04,01,54,965.83
2019,10,04,01,55,965.83
2019,10,04,01,56,965.83
2019,10,04,01,57,965.83
2019,10,04,01,58,965.83
2019,10,04,01,59,965.83
2019,10,04,02,00,965.83
2019,10,04,02,01,965.83
2019,10,04,02,02,965.83
2019,10,04,02,03,965.83
2019,10,04,02,04,965.83
2019,10,04,02,05,965.83
2019,10,04,02,06,966.17
2019,10,04,02,07,966.17
2019,10,04,02,08,966.17
2019,10,04,02,09,966.17
2019,10,04,02,10,966.17
2019,10,04,02,11,966.17
2019,10,04,02,12,966.17
2019,10,04,02,13,966.17
2019,10,04,02,14,966.17
2019,10,04,02,15,966.17
2019,10,04,02,16,966.17
2019,10,04,02,17,966.17
2019,10,04,02,18,966.17
2019,10,04,02,19,966.17
2019,10,04,02,20,966.17
2019,10,04,02,21,966.17
2019,10,04,02,22,966.17
2019,10,04,02,23,966.17
2019,10,04,02,24,966.17
2019,10,04,02,25,966.17
2019,10,04,02,26,966.17
2019,10,04,02,27,966.17
2019,10,04,02,28,966.17
2019,10,04,02,29,966.17
2019,10,04,02,30,966.17
2019,10,04,02,31,966.17
2019,10,04,02,32,966.17
2019,10,04,02,33,966.17
2019,10,04,02,34,966.17
2019,10,04,02,35,966.17
2019,10,04,02,36,966.17
2019,10,04,02,37,966.17
2019,10,04,02,38,966.17
2019,10,04,02,39,966.17
2019,10,04,02,40,966.17
2019,10,04,02,41,966.17
2019,10,04,02,42,966.17
2019,10,04,02,43,966.17
2019,10,04,02,44,966.17
2019,10,04,02,45,966.17
2019,10,04,02,46,966.17
2019,10,04,02,47,966.17
2019,10,04,02,48,966.17
2019,10,04,02,49,966.17
2019,10,04,02,50,966.17
2019,10,04,02,51,966.17
2019,10,04,02,52,966.17
2019,10,04,02,53,966.17
2019,10,04,02,54,966.17
2019,10,04,02,55,966.17
2019,10,04,02,56,966.17
2019,10,04,02,57,966.17
2019,10,04,02,58,966.17
2019,10,04,02,59,966.17
2019,10,04,03,00,966.17
2019,10,04,03,01,966.17
2019,10,04,03,02,966.17
2019,10,04,03,03,966.17
2019,10,04,03,04,966.17
2019,10,04,03,05,966.17
2019,10,04,03,06,966.17
2019,10,04,03,07,966.17
2019,10,04,03,08,966.17
2019,10,04,03,09,966.17
2019,10,04,03,10,966.17
2019,10,04,03,11,966.17
2019,10,04,03,12,966.17
2019,10,04,03,13,966.17
2019,10,04,03,14,966.17
2019,10,04,03,15,966.17
2019,10,04,03,16,966.17
2019,10,04,03,17,966.17
2019,10,04,03,18,966.17
2019,10,04,03,19,966.17
2019,10,04,03,20,966.17
2019,10,04,03,21,966.17
2019,10,04,03,22,966.17
2019,10,04,03,23,966.17
2019,10,04,03,24,966.17
2019,10,04,03,25,966.17
2019,10,04,03,26,966.17
2019,10,04,03,27,966.17
2019,10,04,03,28,966.17
2019,10,04,03,29,966.17
2019,10,04,03,30,966.17
2019,10,04,03,31,966.17
2019,10,04,03,32,966.17
2019,10,04,03,33,966.17
2019,10,04,03,34,966.17
2019,10,04,03,35,966.17
2019,10,04,03,36,966.17
2019,10,04,03,37,966.17
2019,10,04,03,38,966.17
2019,10,04,03,39,966.17
2019,10,04,03,40,966.17
2019,10,04,03,41,966.17
2019,10,04,03,42,966.17
2019,10,04,03,43,966.17
2019,10,04,03,44,966.17
2019,10,04,03,45,966.17
2019,10,04,03,46,966.17
2019,10,04,03,47,966.17
2019,10,04,03,48,966.17
2019,10,04,03,49,966.17
2019,10,04,03,50,966.17
2019,10,04,03,51,966.17
2019,10,04,03,52,966.17
2019,10,04,03,53,966.17
2019,10,04,03,54,966.17
2019,10,04,03,55,966.17
2019,10,04,03,56,966.17
2019,10,04,03,57,966.17
2019,10,04,03,58,966.17
2019,10,04,03,59,966.17
2019,10,04,04,00,966.17
2019,10,04,04,01,966.17
2019,10,04,04,02,966.17
2019,10,04,04,03,966.17
2019,10,04,04,04,966.17
2019,10,04,04,08,966.17
2019,10,04,04,09,966.17
2019,10,04,04,10,966.17
2019,10,04,04,11,966.17
2019,10,04,04,12,966.17
2019,10,04,04,13,966.17
2019,10,04,04,14,966.17
2019,10,04,04,15,966.17
2019,10,04,04,16,966.17
2019,10,04,04,17,966.17
2019,10,04,04,18,966.17
2019,10,04,04,19,966.17
2019,10,04,04,20,966.17
2019,10,04,04,21,966.17
2019,10,04,04,22,966.17
2019,10,04,04,23,966.17
2019,10,04,04,24,966.17
2019,10,04,04,25,966.17
2019,10,04,04,26,966.17
2019,10,04,04,27,966.17
2019,10,04,04,28,966.17
2019,10,04,04,29,966.17
2019,10,04,04,30,966.17
2019,10,04,04,31,966.17
2019,10,04,04,32,966.17
2019,10,04,04,33,966.17
2019,10,04,04,34,966.17
2019,10,04,04,35,966.17
2019,10,04,04,36,966.17
2019,10,04,04,37,966.17
2019,10,04,04,38,966.17
2019,10,04,04,39,966.17
2019,10,04,04,40,966.17
2019,10,04,04,41,966.17
2019,10,04,04,42,966.17
2019,10,04,04,43,966.17
2019,10,04,04,44,966.17
2019,10,04,04,45,966.17
2019,10,04,04,46,966.17
2019,10,04,04,47,966.17
2019,10,04,04,48,966.17
2019,10,04,04,49,966.17
2019,10,04,04,50,966.17
2019,10,04,04,51,966.17
2019,10,04,04,52,966.17
2019,10,04,04,53,966.17
2019,10,04,04,54,966.17
2019,10,04,04,55,966.17
2019,10,04,04,56,966.17
2019,10,04,04,57,966.17
2019,10,04,04,58,966.17
2019,10,04,04,59,966.17
2019,10,04,05,00,966.17
2019,10,04,05,01,966.17
2019,10,04,05,02,966.17
2019,10,04,05,03,966.17
2019,10,04,05,04,966.17
2019,10,04,05,05,966.17
2019,10,04,05,06,966.17
2019,10,04,05,07,966.17
2019,10,04,05,08,966.17
2019,10,04,05,09,966.17
2019,10,04,05,10,966.17
2019,10,04,05,11,966.17
2019,10,04,05,12,966.17
2019,10,04,05,13,966.17
2019,10,04,05,14,966.17
2019,10,04,05,15,966.17
2019,10,04,05,16,966.17
2019,10,04,05,17,966.17
2019,10,04,05,18,966.17
2019,10,04,05,19,966.17
2019,10,04,05,20,966.17
2019,10,04,05,21,966.17
2019,10,04,05,22,966.17
2019,10,04,05,23,966.17
2019,10,04,05,24,966.17
2019,10,04,05,25,966.17
2019,10,04,05,26,966.17
2019,10,04,05,27,966.17
2019,10,04,05,28,966.17
2019,10,04,05,29,966.17
2019,10,04,05,30,966.17
2019,10,04,05,31,966.17
2019,10,04,05,32,966.17
2019,10,04,05,33,966.17
2019,10,04,05,34,966.17
2019,10,04,05,35,966.17
2019,10,04,05,36,966.17
2019,10,04,05,37,966.17
2019,10,04,05,38,966.17
2019,10,04,05,39,966.17
2019,10,04,05,40,966.17
2019,10,04,05,41,966.17
2019,10,04,05,42,966.17
2019,10,04,05,43,966.17
2019,10,04,05,44,966.17
2019,10,04,05,45,966.17
2019,10,04,05,46,966.17
2019,10,04,05,47,966.17
2019,10,04,05,48,966.17
2019,10,04,05,49,966.17
2019,10,04,05,50,966.17
2019,10,04,05,51,966.17
2019,10,04,05,52,966.17
2019,10,04,05,53,966.17
2019,10,04,05,54,966.17
2019,10,04,05,55,966.17
2019,10,04,05,56,966.17
2019,10,04,05,57,966.17
2019,10,04,05,58,966.17
2019,10,04,05,59,966.17
2019,10,04,06,00,966.17
2019,10,04,06,01,966.17
2019,10,04,06,02,966.17
2019,10,04,06,03,966.17
2019,10,04,06,04,966.17
2019,10,04,06,05,966.17
2019,10,04,06,06,966.17
2019,10,04,06,07,966.17
2019,10,04,06,08,966.17
2019,10,04,06,09,966.17
2019,10,04,06,10,966.17
2019,10,04,06,11,966.17
2019,10,04,06,12,966.17
2019,10,04,06,13,966.17
2019,10,04,06,14,966.17
2019,10,04,06,15,966.17
2019,10,04,06,16,966.17
2019,10,04,06,17,966.17
2019,10,04,06,18,966.17
2019,10,04,06,19,966.17
2019,10,04,06,20,966.17
2019,10,04,06,21,966.17
2019,10,04,06,22,966.17
2019,10,04,06,23,966.17
2019,10,04,06,24,966.17
2019,10,04,06,25,966.17
2019,10,04,06,26,966.17
2019,10,04,06,27,966.17
2019,10,04,06,28,966.17
2019,10,04,06,29,966.17
2019,10,04,06,30,966.17
2019,10,04,06,31,966.17
2019,10,04,06,32,966.17
2019,10,04,06,33,966.17
2019,10,04,06,34,966.17
2019,10,04,06,35,966.17
2019,10,04,06,36,966.17
2019,10,04,06,37,966.17
2019,10,04,06,38,966.17
2019,10,04,06,39,966.17
2019,10,04,06,40,966.17
2019,10,04,06,41,966.17
2019,10,04,06,42,966.17
2019,10,04,06,43,966.17
2019,10,04,06,44,966.17
2019,10,04,06,45,966.17
2019,10,04,06,46,966.17
2019,10,04,06,47,966.17
2019,10,04,06,48,966.17
2019,10,04,06,49,966.17
2019,10,04,06,50,966.17
2019,10,04,06,51,966.17
2019,10,04,06,52,966.17
2019,10,04,06,53,966.17
2019,10,04,06,54,966.17
2019,10,04,06,55,966.17
2019,10,04,06,56,966.17
2019,10,04,06,57,966.17
2019,10,04,06,58,966.17
2019,10,04,06,59,966.17
2019,10,04,07,00,966.17
2019,10,04,07,01,966.17
2019,10,04,07,02,966.17
2019,10,04,07,03,966.39
2019,10,04,07,04,967.30
2019,10,04,07,05,967.35
2019,10,04,07,06,967.34
2019,10,04,07,07,967.42
2019,10,04,07,08,967.42
2019,10,04,07,09,967.42
2019,10,04,07,10,967.42
2019,10,04,07,11,967.42
2019,10,04,07,12,967.42
2019,10,04,07,13,967.42
2019,10,04,07,14,967.42
2019,10,04,07,15,967.42
2019,10,04,07,16,967.42
2019,10,04,07,17,967.42
2019,10,04,07,18,967.42
2019,10,04,07,19,967.42
2019,10,04,07,20,967.42
2019,10,04,07,21,967.42
2019,10,04,07,22,967.42
2019,10,04,07,23,967.42
2019,10,04,07,24,967.42
2019,10,04,07,25,967.42
2019,10,04,07,26,967.42
2019,10,04,07,27,967.42
2019,10,04,07,28,967.42
2019,10,04,07,29,967.42
2019,10,04,07,30,967.43
2019,10,04,07,31,967.46
2019,10,04,07,32,967.46
2019,10,04,07,33,967.46
2019,10,04,07,34,967.46
2019,10,04,07,35,967.46
2019,10,04,07,36,967.46
2019,10,04,07,37,967.46
2019,10,04,07,38,967.46
2019,10,04,07,39,967.46
2019,10,04,07,40,967.46
2019,10,04,07,41,967.46
2019,10,04,07,42,967.46
2019,10,04,07,43,967.46
2019,10,04,07,44,967.46
2019,10,04,07,45,967.46
2019,10,04,07,46,967.46
2019,10,04,07,47,967.46
2019,10,04,07,48,967.46
2019,10,04,07,49,967.46
2019,10,04,07,50,967.46
2019,10,04,07,51,967.46
2019,10,04,07,52,967.46
2019,10,04,07,53,967.46
2019,10,04,07,54,967.46
2019,10,04,07,55,967.46
2019,10,04,07,56,967.46
2019,10,04,07,57,967.46
2019,10,04,07,58,967.46
2019,10,04,07,59,967.46
2019,10,04,08,00,967.46
2019,10,04,08,01,967.46
2019,10,04,08,02,967.46
2019,10,04,08,03,967.46
2019,10,04,08,04,967.46
2019,10,04,08,05,967.46
2019,10,04,08,06,967.46
2019,10,04,08,07,967.46
2019,10,04,08,08,967.46
2019,10,04,08,09,967.46
2019,10,04,08,10,967.46
2019,10,04,08,11,967.46
2019,10,04,08,12,967.46
2019,10,04,08,13,967.46
2019,10,04,08,14,967.46
2019,10,04,08,15,967.46
2019,10,04,08,16,967.46
2019,10,04,08,17,967.46
2019,10,04,08,18,967.46
2019,10,04,08,19,967.46
2019,10,04,08,20,967.46
2019,10,04,08,21,967.46
2019,10,04,08,22,967.46
2019,10,04,08,23,967.46
2019,10,04,08,24,967.46
2019,10,04,08,25,967.46
2019,10,04,08,26,967.46
2019,10,04,08,27,967.46
2019,10,04,08,28,967.46
2019,10,04,08,29,967.46
2019,10,04,08,30,967.46
2019,10,04,08,31,967.46
2019,10,04,08,32,967.46
2019,10,04,08,33,967.46
2019,10,04,08,34,967.46
2019,10,04,08,35,967.46
2019,10,04,08,36,967.46
2019,10,04,08,37,967.46
2019,10,04,08,38,967.46
2019,10,04,08,39,967.46
2019,10,04,08,40,967.46
2019,10,04,08,41,967.46
2019,10,04,08,42,967.46
2019,10,04,08,43,967.46
2019,10,04,08,44,967.46
2019,10,04,08,45,967.46
2019,10,04,08,46,967.46
2019,10,04,08,47,967.46
2019,10,04,08,48,967.46
2019,10,04,08,49,967.46
2019,10,04,08,50,967.46
2019,10,04,08,51,967.46
2019,10,04,08,52,967.46
2019,10,04,08,53,967.46
2019,10,04,08,54,967.46
2019,10,04,08,55,967.46
2019,10,04,08,56,967.46
2019,10,04,08,57,967.46
2019,10,04,08,58,967.46
2019,10,04,08,59,967.46
2019,10,04,09,00,967.46
2019,10,04,09,01,967.46
2019,10,04,09,02,967.46
2019,10,04,09,03,967.68
2019,10,04,09,04,967.93
2019,10,04,09,05,967.93
2019,10,04,09,06,967.93
2019,10,04,09,07,967.93
2019,10,04,09,08,967.93
2019,10,04,09,09,967.93
2019,10,04,09,10,967.93
2019,10,04,09,11,967.93
2019,10,04,09,12,967.93
2019,10,04,09,13,967.93
2019,10,04,09,14,967.93
2019,10,04,09,15,967.93
2019,10,04,09,16,967.93
2019,10,04,09,17,967.93
2019,10,04,09,18,967.93
2019,10,04,09,19,967.93
2019,10,04,09,20,967.93
2019,10,04,09,21,967.93
2019,10,04,09,22,967.93
2019,10,04,09,23,967.93
2019,10,04,09,24,967.93
2019,10,04,09,25,967.93
2019,10,04,09,26,967.93
2019,10,04,09,27,967.93
2019,10,04,09,28,967.93
2019,10,04,09,29,967.93
2019,10,04,09,30,967.93
2019,10,04,09,31,967.93
2019,10,04,09,32,967.93
2019,10,04,09,33,967.93
2019,10,04,09,34,967.93
2019,10,04,09,35,967.93
2019,10,04,09,36,967.93
2019,10,04,09,37,967.93
2019,10,04,09,38,967.93
2019,10,04,09,39,967.93
2019,10,04,09,40,967.93
2019,10,04,09,41,967.93
2019,10,04,09,42,967.93
2019,10,04,09,43,967.93
2019,10,04,09,44,967.93
2019,10,04,09,45,967.93
2019,10,04,09,46,967.93
2019,10,04,09,47,967.93
2019,10,04,09,48,967.93
2019,10,04,09,49,967.93
2019,10,04,09,50,967.93
2019,10,04,09,51,967.93
2019,10,04,09,52,967.93
2019,10,04,09,53,967.93
2019,10,04,09,54,967.93
2019,10,04,09,55,967.93
2019,10,04,09,56,967.93
2019,10,04,09,57,967.93
2019,10,04,09,58,967.93
2019,10,04,09,59,967.93
2019,10,04,10,00,967.93
2019,10,04,10,01,967.93
2019,10,04,10,02,967.93
2019,10,04,10,03,967.93
2019,10,04,10,04,967.93
2019,10,04,10,05,967.93
2019,10,04,10,06,967.93
2019,10,04,10,07,967.93
2019,10,04,10,08,967.93
2019,10,04,10,09,967.93
2019,10,04,10,10,967.93
2019,10,04,10,11,967.93
2019,10,04,10,12,967.93
2019,10,04,10,13,967.93
2019,10,04,10,14,967.93
2019,10,04,10,15,967.93
2019,10,04,10,16,967.93
2019,10,04,10,17,967.93
2019,10,04,10,18,967.93
2019,10,04,10,19,967.93
2019,10,04,10,20,967.93
2019,10,04,10,21,967.93
2019,10,04,10,22,967.93
2019,10,04,10,23,967.93
2019,10,04,10,24,967.93
2019,10,04,10,25,967.93
2019,10,04,10,26,967.93
2019,10,04,10,27,967.93
2019,10,04,10,28,967.93
2019,10,04,10,29,967.93
2019,10,04,10,30,967.93
2019,10,04,10,31,967.93
2019,10,04,10,32,967.93
2019,10,04,10,33,967.93
2019,10,04,10,34,967.93
2019,10,04,10,35,967.93
2019,10,04,10,36,967.93
2019,10,04,10,37,967.93
2019,10,04,10,38,967.93
2019,10,04,10,39,967.93
2019,10,04,10,40,967.93
2019,10,04,10,41,967.93
2019,10,04,10,42,967.93
2019,10,04,10,43,967.93
2019,10,04,10,44,967.93
2019,10,04,10,45,967.93
2019,10,04,10,46,967.93
2019,10,04,10,47,967.93
2019,10,04,10,48,967.93
2019,10,04,10,49,967.93
2019,10,04,10,50,967.93
2019,10,04,10,51,967.93
2019,10,04,10,52,967.93
2019,10,04,10,53,967.93
2019,10,04,10,54,967.93
2019,10,04,10,55,967.93
2019,10,04,10,56,967.93
2019,10,04,10,57,967.93
2019,10,04,10,58,967.93
2019,10,04,10,59,967.93
2019,10,04,11,00,967.93
2019,10,04,11,01,967.93
2019,10,04,11,02,967.93
2019,10,04,11,03,967.93
2019,10,04,11,04,967.93
2019,10,04,11,05,967.93
2019,10,04,11,06,967.93
2019,10,04,11,07,967.93
2019,10,04,11,08,967.93
2019,10,04,11,09,967.93
2019,10,04,11,10,967.93
2019,10,04,11,11,967.93
2019,10,04,11,12,967.93
2019,10,04,11,13,967.93
2019,10,04,11,14,967.93
2019,10,04,11,15,967.93
2019,10,04,11,16,967.93
2019,10,04,11,17,967.93
2019,10,04,11,18,967.93
2019,10,04,11,19,967.93
2019,10,04,11,20,967.93
2019,10,04,11,21,967.93
2019,10,04,11,22,967.93
2019,10,04,11,23,967.93
2019,10,04,11,24,967.93
2019,10,04,11,25,967.93
2019,10,04,11,26,967.93
2019,10,04,11,27,967.93
2019,10,04,11,28,967.93
2019,10,04,11,29,967.93
2019,10,04,11,30,967.93
2019,10,04,11,31,967.93
2019,10,04,11,32,967.93
2019,10,04,11,33,967.93
2019,10,04,11,34,967.93
2019,10,04,11,35,967.93
2019,10,04,11,36,967.93
2019,10,04,11,37,967.93
2019,10,04,16,57,972.37
2019,10,04,16,58,972.37
2019,10,04,16,59,972.37
2019,10,04,17,00,972.37
2019,10,04,17,01,972.37
2019,10,04,17,02,972.37
2019,10,04,17,03,972.37
2019,10,04,17,04,972.37
2019,10,04,17,05,972.37
2019,10,04,17,06,972.37
2019,10,04,17,07,972.37
2019,10,04,17,08,972.37
2019,10,04,17,09,972.37
2019,10,04,17,10,972.37
2019,10,04,17,11,972.37
2019,10,04,17,12,972.37
2019,10,04,17,13,972.37
2019,10,04,17,14,972.37
2019,10,04,17,15,972.37
2019,10,04,17,16,972.37
2019,10,04,17,17,972.37
2019,10,04,17,18,972.37
2019,10,04,17,19,972.37
2019,10,04,17,20,972.37
2019,10,04,17,21,972.37
2019,10,04,17,22,972.37
2019,10,04,17,23,972.37
2019,10,04,17,24,972.37
2019,10,04,17,25,972.37
2019,10,04,17,26,972.37
2019,10,04,17,27,972.37
2019,10,04,17,28,972.37
2019,10,04,17,29,972.37
2019,10,04,17,30,972.37
2019,10,04,17,31,972.37
2019,10,04,17,32,972.37
2019,10,04,17,33,972.37
2019,10,04,17,34,972.37
2019,10,04,17,35,972.37
2019,10,04,17,36,972.37
2019,10,04,17,37,972.37
2019,10,04,17,38,972.37
2019,10,04,17,39,972.37
2019,10,04,17,40,972.37
2019,10,04,17,41,972.37
2019,10,04,17,42,972.37
2019,10,04,17,43,972.37
2019,10,04,17,44,972.37
2019,10,04,17,45,972.37
2019,10,04,17,46,972.37
2019,10,04,17,47,972.37
2019,10,04,17,48,972.37
2019,10,04,17,49,972.37
2019,10,04,17,50,972.37
2019,10,04,17,51,972.37
2019,10,04,17,52,972.37
2019,10,04,17,53,972.37
2019,10,04,17,54,972.37
2019,10,04,17,55,972.37
2019,10,04,17,56,972.37
2019,10,04,17,57,972.37
2019,10,04,17,58,972.37
2019,10,04,17,59,972.37
2019,10,04,18,00,972.37
2019,10,04,18,01,972.37
2019,10,04,18,02,972.37
2019,10,04,18,03,972.37
2019,10,04,18,04,972.37
2019,10,04,18,05,972.37
2019,10,04,18,06,972.37
2019,10,04,18,07,972.37
2019,10,04,18,08,972.37
2019,10,04,18,09,972.37
2019,10,04,18,10,972.37
2019,10,04,18,11,972.37
2019,10,04,18,12,972.37
2019,10,04,18,13,972.37
2019,10,04,18,14,972.37
2019,10,04,18,15,972.37
2019,10,04,18,16,972.37
2019,10,04,18,17,972.37
2019,10,04,18,18,972.37
2019,10,04,18,19,972.37
2019,10,04,18,20,972.37
2019,10,04,18,21,972.37
2019,10,04,18,22,972.37
2019,10,04,18,23,972.37
2019,10,04,18,24,972.37
2019,10,04,18,25,972.37
2019,10,04,18,26,972.37
2019,10,04,18,27,972.37
2019,10,04,18,28,972.37
2019,10,04,18,29,972.37
2019,10,04,18,30,972.37
2019,10,04,18,31,972.37
2019,10,04,18,32,972.37
2019,10,04,18,33,972.37
2019,10,04,18,34,972.37
2019,10,04,18,35,972.37
2019,10,04,18,36,972.37
2019,10,04,18,37,972.37
2019,10,04,18,38,972.37
2019,10,04,18,39,972.37
2019,10,04,18,40,972.68
2019,10,04,18,41,972.65
2019,10,04,18,42,972.64
2019,10,04,18,43,972.64
2019,10,04,18,44,972.64
2019,10,04,18,45,972.64
2019,10,04,18,46,972.64
2019,10,04,18,47,972.64
2019,10,04,18,48,972.64
2019,10,04,18,49,972.64
2019,10,04,18,50,972.64
2019,10,04,18,51,972.64
2019,10,04,18,52,972.64
2019,10,04,18,53,972.64
2019,10,04,18,54,972.64
2019,10,04,18,55,972.64
2019,10,04,18,56,972.64
2019,10,04,18,57,972.64
2019,10,04,18,58,972.64
2019,10,04,18,59,972.64
2019,10,04,19,00,972.64
2019,10,04,19,01,972.64
2019,10,04,19,02,972.64
2019,10,04,19,03,972.64
2019,10,04,19,04,972.64
2019,10,04,19,05,972.64
2019,10,04,19,06,972.64
2019,10,04,19,07,972.64
2019,10,04,19,08,972.64
2019,10,04,19,09,972.64
2019,10,04,19,10,972.64
2019,10,04,19,11,972.64
2019,10,04,19,12,972.64
2019,10,04,19,13,972.64
2019,10,04,19,14,972.64
2019,10,04,19,15,972.64
2019,10,04,19,16,972.64
2019,10,04,19,17,972.64
2019,10,04,19,18,972.64
2019,10,04,19,19,972.64
2019,10,04,19,20,972.64
2019,10,04,19,21,972.91
2019,10,04,19,22,972.94
2019,10,04,19,23,972.94
2019,10,04,19,24,972.94
2019,10,04,19,25,972.94
2019,10,04,19,26,972.94
2019,10,04,19,27,972.94
2019,10,04,19,28,972.94
2019,10,04,19,29,972.94
2019,10,04,19,30,972.94
2019,10,04,19,31,972.94
2019,10,04,19,32,972.94
2019,10,04,19,33,972.91
2019,10,04,19,34,972.93
2019,10,04,19,35,972.81
2019,10,04,19,36,972.81
2019,10,04,19,37,972.98
2019,10,04,19,38,972.98
2019,10,04,19,39,972.98
2019,10,04,19,40,972.98
2019,10,04,19,41,972.98
2019,10,04,19,42,972.98
2019,10,04,19,43,972.98
2019,10,04,19,44,972.98
2019,10,04,19,45,972.98
2019,10,04,19,46,973.11
2019,10,04,19,47,973.11
2019,10,04,19,48,973.11
2019,10,04,19,49,973.11
2019,10,04,19,50,973.08
2019,10,04,19,51,973.15
2019,10,04,19,52,973.11
2019,10,04,19,53,973.18
2019,10,04,19,54,973.15
2019,10,04,19,55,973.18
2019,10,04,19,56,973.16
2019,10,04,19,57,973.25
2019,10,04,19,58,973.25
2019,10,04,19,59,973.25
2019,10,04,20,00,973.25
2019,10,04,20,01,973.25
2019,10,04,20,02,973.25
2019,10,04,20,03,973.25
2019,10,04,20,04,973.25
2019,10,04,20,05,973.25
2019,10,04,20,06,973.25
2019,10,04,20,07,973.25
2019,10,04,20,08,973.25
2019,10,04,20,09,973.25
2019,10,04,20,10,973.25
2019,10,04,20,11,973.25
2019,10,04,20,12,973.25
2019,10,04,20,13,973.25
2019,10,04,20,14,973.25
2019,10,04,20,15,973.28
2019,10,04,20,16,973.49
2019,10,04,20,17,973.49
2019,10,04,20,18,973.49
2019,10,04,20,19,973.46
2019,10,04,20,20,973.49
2019,10,04,20,21,973.49
2019,10,04,20,22,973.49
2019,10,04,20,23,973.49
2019,10,04,20,24,973.49
2019,10,04,20,25,973.49
2019,10,04,20,26,973.49
2019,10,04,20,27,973.49
2019,10,04,20,28,973.49
2019,10,04,20,29,973.49
2019,10,04,20,30,973.49
2019,10,04,20,31,973.49
2019,10,04,20,32,973.49
2019,10,04,20,33,973.49
2019,10,04,20,34,973.49
2019,10,04,20,35,973.49
2019,10,04,20,36,973.49
2019,10,04,20,37,973.49
2019,10,04,20,38,973.49
2019,10,04,20,39,973.49
2019,10,04,20,40,973.49
2019,10,04,20,41,973.49
2019,10,04,20,42,973.49
2019,10,04,20,43,973.49
2019,10,04,20,44,973.49
2019,10,04,20,45,973.49
2019,10,04,20,46,973.49
2019,10,04,20,47,973.49
2019,10,04,20,48,973.52
2019,10,04,20,49,973.64
2019,10,04,20,50,973.59
2019,10,04,20,51,973.59
2019,10,04,20,52,973.59
2019,10,04,20,53,973.59
2019,10,04,20,54,973.59
2019,10,04,20,55,973.59
2019,10,04,20,56,973.59
2019,10,04,20,57,973.59
2019,10,04,20,58,973.59
2019,10,04,20,59,973.59
2019,10,04,21,00,973.59
2019,10,04,21,01,973.59
2019,10,04,21,02,973.59
2019,10,04,21,03,973.59
2019,10,04,21,04,973.59
2019,10,04,21,05,973.59
2019,10,04,21,06,973.59
2019,10,04,21,07,973.59
2019,10,04,21,08,973.59
2019,10,04,21,09,973.59
2019,10,04,21,10,973.59
2019,10,04,21,11,973.67
2019,10,04,21,12,973.93
2019,10,04,21,13,973.93
2019,10,04,21,14,973.93
2019,10,04,21,15,973.93
2019,10,04,21,16,973.93
2019,10,04,21,17,973.93
2019,10,04,21,18,973.93
2019,10,04,21,19,973.93
2019,10,04,21,20,973.93
2019,10,04,21,21,973.93
2019,10,04,21,22,973.93
2019,10,04,21,23,973.93
2019,10,04,21,24,973.93
2019,10,04,21,25,973.93
2019,10,04,21,26,973.93
2019,10,04,21,27,973.93
2019,10,04,21,28,973.93
2019,10,04,21,29,973.93
2019,10,04,21,30,973.93
2019,10,04,21,31,973.90
2019,10,04,21,32,973.82
2019,10,04,21,33,973.82
2019,10,04,21,34,973.84
2019,10,04,21,35,973.87
2019,10,04,21,36,973.82
2019,10,04,21,37,973.82
2019,10,04,21,38,973.82
2019,10,04,21,39,973.82
2019,10,04,21,40,973.82
2019,10,04,21,41,973.82
2019,10,04,21,42,973.82
2019,10,04,21,43,973.82
2019,10,04,21,44,973.82
2019,10,04,21,45,973.82
2019,10,04,21,46,973.82
2019,10,04,21,47,973.82
2019,10,04,21,48,973.82
2019,10,04,21,49,973.82
2019,10,04,21,50,973.82
2019,10,04,21,51,973.82
2019,10,04,21,52,973.82
2019,10,04,21,53,973.82
2019,10,04,21,54,973.82
2019,10,04,21,55,973.82
2019,10,04,21,56,973.82
2019,10,04,21,57,973.82
2019,10,04,21,58,973.82